#timestamp,LO_Frequency,Hit 
1503050415.0,286047010.8,N
1503050415.9,286047010.8,N
1503050435.8,286047012.2,N
1503050455.6,286047008.1,N
1503050475.4,286047007.3,N
1503050495.3,286047001.2,N
1503050515.1,286047002.4,N
1503050516.0,286047002.4,N
1503050535.8,286047003.0,N
1503050555.7,286047005.2,N
1503050575.5,286047006.4,N
1503050595.3,286047003.8,N
1503050615.2,286047004.7,N
1503050635.9,286047005.7,N
1503050655.7,286047005.6,N
1503050675.5,286047004.5,N
1503050695.4,286047001.0,N
1503050715.2,286047000.3,N
1503050735.0,286046998.6,N
1503050735.9,286046998.6,N
1503050755.8,286046997.1,N
1503050775.6,286046995.7,N
1503050795.4,286046992.9,N
1503050815.3,286046990.6,N
1503050835.1,286046992.4,N
1503050836.0,286046992.4,N
1503050855.8,286046991.7,N
1503050875.7,286046990.4,N
1503050895.5,286046987.1,N
1503050915.3,286046990.9,N
1503050935.2,286046994.3,N
1503050955.9,286046993.2,N
1503050975.7,286046990.0,N
1503050995.6,286046987.9,N
1503051015.4,286046988.1,N
1503051035.2,286046984.4,N
1503051055.0,286046980.9,N
1503051056.0,286046980.9,N
1503051075.8,286046979.3,N
1503051095.6,286046977.3,N
1503051115.4,286046977.3,N
1503051135.3,286046977.6,N
1503051155.1,286046977.0,N
1503051175.8,286046979.7,N
1503051195.7,286046979.9,N
1503051215.5,286046979.1,N
1503051235.3,286046978.1,N
1503051255.2,286046977.5,P
1503051275.0,286046987.7,N
1503051275.9,286046987.7,N
1503051295.7,286046991.6,N
1503051315.6,286046985.3,P
1503051335.4,286046999.4,N
1503051355.3,286046996.6,N
1503051375.1,286046998.6,N
1503051376.0,286046998.6,N
1503051395.8,286047004.2,N
1503051415.6,286047002.7,N
1503051435.5,286047004.1,N
1503051455.3,286047007.6,N
1503051475.1,286047010.1,N
1503051495.9,286047017.9,N
1503051515.7,286047022.4,N
1503051535.5,286047025.8,N
1503051555.4,286047030.4,N
1503051575.2,286047032.2,N
1503051595.0,286047036.3,N
1503051595.9,286047036.3,N
1503051615.8,286047038.0,N
1503051635.6,286047036.9,N
1503051655.4,286047038.3,N
1503051675.3,286047042.1,N
1503051695.1,286047043.5,N
1503051696.0,286047043.5,N
1503051715.8,286047049.0,N
1503051735.7,286047050.4,N
1503051755.5,286047050.1,N
1503051775.3,286047052.8,N
1503051795.1,286047054.5,N
1503051815.9,286047057.8,N
1503051835.7,286047061.6,N
1503051855.5,286047061.9,N
1503051875.4,286047061.7,N
1503051895.2,286047061.9,N
1503051915.0,286047065.6,P
1503051915.9,286047065.6,P
1503051935.8,286047032.8,N
1503051955.6,286047028.3,N
1503051975.4,286047024.1,N
1503051995.3,286047018.4,N
1503052015.1,286047013.6,N
1503052035.8,286047013.9,N
1503052055.7,286047011.1,N
1503052075.5,286047005.1,N
1503052095.3,286047005.7,N
1503052115.2,286047005.5,N
1503052135.9,286047006.2,N
1503052155.7,286047010.2,N
1503052175.6,286047013.0,N
1503052195.4,286047014.9,N
1503052215.2,286047016.2,N
1503052235.1,286047017.3,N
1503052236.0,286047017.3,N
1503052255.8,286047013.2,N
1503052275.6,286047009.4,N
1503052295.4,286047012.6,N
1503052315.3,286047016.1,N
1503052335.1,286047019.8,N
1503052355.8,286047022.7,N
1503052375.7,286047020.0,N
1503052395.5,286047021.5,N
1503052415.3,286047021.9,N
1503052435.2,286047022.9,N
1503052455.9,286047020.3,N
1503052475.7,286047014.3,N
1503052495.6,286047015.2,N
1503052515.4,286047017.2,N
1503052535.2,286047013.6,N
1503052555.1,286047007.8,N
1503052556.0,286047007.8,N
1503052575.8,286047003.1,N
1503052595.6,286046996.6,N
1503052615.5,286046998.8,N
1503052635.3,286046998.2,N
1503052655.1,286046996.7,N
1503052675.8,286046996.1,N
1503052695.7,286046990.4,N
1503052715.5,286046985.4,N
1503052735.3,286046986.0,N
1503052755.2,286046989.9,N
1503052775.0,286046988.5,N
1503052775.9,286046988.5,N
1503052795.7,286046993.1,N
1503052815.6,286046996.4,N
1503052835.4,286046996.5,N
1503052855.2,286047003.7,N
1503052875.1,286047007.1,N
1503052876.0,286047007.1,N
1503052895.8,286047008.1,N
1503052915.6,286047014.0,N
1503052935.5,286047013.2,N
1503052955.3,286047007.8,N
1503052975.1,286047005.0,N
1503052995.9,286047004.0,N
1503053015.7,286047002.3,N
1503053035.5,286047001.7,N
1503053055.4,286046995.3,N
1503053075.2,286046992.9,N
1503053095.0,286046990.4,N
1503053095.9,286046990.4,N
1503053115.7,286046990.4,N
1503053135.6,286046991.0,N
1503053155.4,286046990.8,N
1503053175.2,286046990.3,N
1503053195.1,286046993.1,N
1503053196.0,286046993.1,N
1503053215.8,286046994.7,N
1503053235.6,286046990.5,N
1503053255.5,286046991.5,N
1503053275.3,286046987.5,N
1503053295.1,286046984.9,N
1503053315.9,286046983.6,N
1503053335.7,286046979.3,N
1503053355.5,286046980.6,N
1503053375.4,286046978.2,N
1503053395.2,286046977.5,N
1503053415.0,286046977.0,N
1503053415.9,286046977.0,N
1503053435.8,286046978.7,N
1503053455.6,286046977.8,N
1503053475.4,286046981.9,N
1503053495.3,286046985.0,N
1503053515.1,286046984.1,N
1503053516.0,286046984.1,N
1503053535.8,286046985.4,N
1503053555.7,286046987.1,N
1503053575.5,286046988.2,N
1503053595.3,286046984.4,N
1503053615.1,286046985.0,N
1503053635.9,286046986.3,N
1503053655.7,286046983.7,P
1503053675.6,286047000.0,N
1503053695.4,286047003.6,N
1503053715.2,286047002.9,N
1503053735.0,286047007.5,N
1503053736.0,286047007.5,N
1503053755.8,286047005.2,N
1503053775.6,286047004.6,N
1503053795.4,286047007.1,N
1503053815.3,286047003.2,N
1503053835.1,286046998.2,N
1503053855.8,286046999.6,N
1503053875.7,286046997.6,N
1503053895.5,286046995.3,N
1503053915.3,286046994.9,N
1503053935.2,286046995.6,N
1503053955.9,286046996.2,N
1503053975.7,286046996.0,N
1503053995.6,286046995.8,N
